EW2500 Weather Reports


Display with metric or nautical units.
time (UTC)temp
F
wind
direction
speed
MPH
gust
MPH
rain 1hr
in
rain 24hr
in
rain mn
in
humidity
%
barometer
mb
20260509024048 47 237 0.0 0.0 0.00 0.01 0.01 82 1010.5
20260509023540 47 237 0.0 0.0 0.00 0.01 0.01 82 1010.4
20260509023050 47 237 0.0 0.0 0.00 0.01 0.01 82 1010.4
20260509022541 47 237 0.0 0.0 0.00 0.01 0.01 82 1010.3
20260509022054 47 237 0.0 0.0 0.00 0.01 0.01 83 1010.4
20260509021545 47 237 0.0 0.0 0.00 0.01 0.01 83 1010.4
20260509021120 47 237 0.0 0.0 0.00 0.01 0.01 83 1010.4
20260509020548 47 237 0.0 0.0 0.00 0.01 0.01 83 1010.5
20260509015555 46 237 0.0 0.0 0.00 0.01 0.01 83 1010.5
20260509015048 46 237 0.0 0.0 0.00 0.01 0.01 82 1010.4
20260509014621 46 237 0.0 0.0 0.00 0.01 0.01 82 1010.4
20260509014051 47 237 0.0 0.0 0.00 0.01 0.01 82 1010.4
20260509013541 47 237 0.0 0.0 0.00 0.01 0.01 81 1010.3
20260509013115 47 237 0.0 0.0 0.00 0.01 0.01 81 1010.4
20260509012547 47 237 0.0 0.0 0.00 0.01 0.01 80 1010.4
20260509012059 47 237 0.0 0.0 0.00 0.01 0.01 80 1010.2
20260509011551 48 237 0.0 0.0 0.00 0.01 0.01 79 1010.3
20260509011043 48 237 0.0 0.0 0.00 0.01 0.01 79 1010.1
20260509010558 48 237 0.0 0.0 0.00 0.01 0.01 78 1010.1
20260509010047 49 237 0.0 0.0 0.00 0.01 0.01 77 1010.0
20260509005540 49 237 0.0 0.0 0.00 0.01 0.01 76 1009.8
20260509005112 49 237 0.0 0.0 0.00 0.01 0.01 75 1009.8
20260509004543 50 237 0.0 0.0 0.00 0.01 0.01 74 1009.7
20260509004055 51 237 0.0 0.0 0.00 0.01 0.01 74 1009.6
20260509003546 51 237 0.0 0.0 0.00 0.01 0.01 73 1009.5
20260509003059 51 237 0.0 0.0 0.00 0.01 0.01 72 1009.5
20260509002613 52 237 0.0 0.0 0.00 0.01 0.01 71 1009.4
20260509002044 52 237 0.0 0.0 0.00 0.01 0.01 70 1009.2
20260509001618 53 237 0.0 0.0 0.00 0.01 0.01 68 1009.1
20260509001048 53 237 0.0 0.0 0.00 0.01 0.01 67 1009.1
20260509000538 54 237 0.0 0.0 0.00 0.01 0.01 66 1009.2
20260509000052 54 236 0.0 0.0 0.00 0.01 0.01 66 1009.2
20260508235543 55 236 0.0 0.0 0.00 0.01 0.01 64 1009.1
20260508235055 55 236 0.0 0.0 0.00 0.01 0.01 63 1009.0
20260508234547 55 236 0.0 0.0 0.00 0.01 0.01 63 1009.0
20260508234041 56 238 0.0 0.0 0.00 0.01 0.01 61 1009.0
20260508233553 56 238 0.0 0.0 0.00 0.01 0.01 61 1009.0
20260508233044 56 238 0.0 0.0 0.00 0.01 0.01 60 1008.9
20260508232556 56 237 0.0 0.0 0.00 0.01 0.01 62 1008.8
20260508232046 56 290 0.0 0.0 0.00 0.01 0.01 59 1008.8
20260508231600 56 277 0.0 0.0 0.00 0.01 0.01 59 1008.7
20260508231051 56 277 0.0 0.0 0.00 0.01 0.01 56 1008.6
20260508230604 56 272 0.0 1.0 0.00 0.01 0.01 57 1008.6
20260508230057 57 269 0.0 1.0 0.00 0.01 0.01 55 1008.6
20260508225547 57 269 0.0 0.0 0.00 0.01 0.01 54 1008.5
20260508225040 57 269 0.0 3.0 0.00 0.01 0.01 55 1008.5
20260508224549 58 257 0.0 3.0 0.00 0.01 0.01 54 1008.4
20260508224040 57 294 0.0 2.0 0.00 0.01 0.01 52 1008.4
20260508223551 58 305 0.0 9.0 0.00 0.01 0.01 54 1008.3
20260508223044 58 290 0.0 9.0 0.00 0.01 0.01 50 1008.2
20260508222556 59 265 0.0 13.0 0.00 0.01 0.01 51 1008.2
20260508222047 59 275 1.0 13.0 0.00 0.01 0.01 54 1008.2
20260508221621 59 245 0.0 5.0 0.00 0.01 0.01 52 1008.2
20260508221052 59 265 1.0 6.0 0.00 0.01 0.01 51 1008.1
20260508220544 59 281 0.0 8.0 0.00 0.01 0.01 52 1008.2
20260508220058 59 269 1.0 8.0 0.00 0.01 0.01 51 1008.3
20260508215549 59 214 0.0 10.0 0.00 0.01 0.01 51 1008.3
20260508215041 59 281 1.0 10.0 0.00 0.01 0.01 52 1008.3
20260508214614 58 206 0.0 9.0 0.00 0.01 0.01 51 1008.3
20260508214045 58 263 0.0 9.0 0.00 0.01 0.01 52 1008.2
20260508213557 58 255 1.0 10.0 0.00 0.01 0.01 51 1008.2
20260508213049 59 223 1.0 10.0 0.00 0.01 0.01 50 1008.3
20260508212543 59 173 0.0 5.0 0.00 0.01 0.01 53 1008.3
20260508212056 59 303 0.0 5.0 0.00 0.01 0.01 51 1008.4
20260508211547 59 280 0.0 5.0 0.00 0.01 0.01 53 1008.5
20260508211059 59 284 1.0 5.0 0.00 0.01 0.01 54 1008.4
20260508210552 59 246 0.0 12.0 0.00 0.01 0.01 54 1008.3
20260508210104 58 244 0.0 12.0 0.00 0.01 0.01 55 1008.3
20260508205555 58 244 1.0 9.0 0.00 0.01 0.01 55 1008.3
20260508205046 58 149 0.0 2.0 0.00 0.01 0.01 55 1008.3
20260508204539 58 276 0.0 2.0 0.00 0.01 0.01 56 1008.4
20260508204111 58 311 0.0 4.0 0.00 0.01 0.01 57 1008.3
20260508203542 57 216 0.0 4.0 0.00 0.01 0.01 57 1008.2
20260508203058 57 285 0.0 10.0 0.00 0.01 0.01 61 1008.2
20260508202551 56 176 2.0 11.0 0.00 0.01 0.01 60 1008.2
20260508202042 55 284 0.0 12.0 0.01 0.01 0.01 65 1008.1
20260508201555 55 313 0.0 6.0 0.01 0.01 0.01 69 1008.2
20260508201045 54 228 0.0 2.0 0.01 0.01 0.01 78 1008.3
20260508200620 52 228 0.0 1.0 0.01 0.01 0.01 78 1008.3
20260508200052 52 222 0.0 1.0 0.01 0.01 0.01 78 1008.6
20260508195544 51 203 0.0 1.0 0.01 0.01 0.01 79 1008.6
20260508195119 51 329 0.0 3.0 0.01 0.01 0.01 81 1008.7
20260508194613 51 300 0.0 3.0 0.01 0.01 0.01 82 1008.9
20260508194042 50 271 0.0 2.0 0.01 0.01 0.01 83 1009.0
20260508193555 50 273 0.0 2.0 0.01 0.01 0.01 84 1009.0
20260508193049 49 341 0.0 2.0 0.01 0.01 0.01 81 1009.1
20260508192540 50 222 0.0 10.0 0.01 0.01 0.01 80 1009.3
20260508192051 51 283 1.0 10.0 0.00 0.00 0.00 74 1009.3
20260508191605 53 344 1.0 9.0 0.00 0.00 0.00 67 1009.3
20260508191115 55 329 1.0 8.0 0.00 0.00 0.00 59 1009.1
20260508190608 56 277 0.0 8.0 0.00 0.00 0.00 55 1008.8
20260508185552 57 292 0.0 13.0 0.00 0.00 0.00 53 1008.5
20260508185045 57 263 0.0 13.0 0.00 0.00 0.00 52 1008.3
20260508184555 58 205 0.0 13.0 0.00 0.00 0.00 50 1008.4
20260508184046 58 242 0.0 13.0 0.00 0.00 0.00 49 1008.2
20260508183559 59 278 2.0 12.0 0.00 0.00 0.00 48 1008.1
20260508183110 59 213 0.0 10.0 0.00 0.00 0.00 50 1008.1
20260508182543 58 269 1.0 14.0 0.00 0.00 0.00 51 1008.1
20260508182055 58 288 2.0 14.0 0.00 0.00 0.00 52 1008.1
20260508181548 58 281 0.0 11.0 0.00 0.00 0.00 51 1008.0
20260508181059 58 302 2.0 11.0 0.00 0.00 0.00 51 1008.0
20260508180550 58 222 1.0 11.0 0.00 0.00 0.00 51 1008.0
20260508180041 58 297 0.0 13.0 0.00 0.00 0.00 52 1008.2
20260508175555 57 275 2.0 13.0 0.00 0.00 0.00 51 1008.3
20260508175048 57 222 1.0 7.0 0.00 0.00 0.00 54 1008.3
20260508174601 56 229 0.0 7.0 0.00 0.00 0.00 52 1008.7
20260508174055 56 219 0.0 7.0 0.00 0.00 0.00 52 1008.7
20260508173607 56 232 1.0 7.0 0.00 0.00 0.00 52 1008.7
20260508173041 56 248 0.0 11.0 0.00 0.00 0.00 50 1008.7
20260508172549 56 272 0.0 11.0 0.00 0.00 0.00 52 1008.7
20260508172041 56 292 0.0 9.0 0.00 0.00 0.00 49 1008.5
20260508171553 56 260 1.0 9.0 0.00 0.00 0.00 48 1008.4
20260508171044 56 265 1.0 11.0 0.00 0.00 0.00 48 1008.5
20260508170621 56 248 1.0 11.0 0.00 0.00 0.00 47 1008.3
20260508170051 56 288 0.0 8.0 0.00 0.00 0.00 47 1008.4
20260508165543 57 198 0.0 2.0 0.00 0.00 0.00 49 1008.5
20260508165055 57 173 0.0 1.0 0.00 0.00 0.00 48 1008.4
20260508164548 56 210 0.0 9.0 0.00 0.00 0.00 49 1008.5
20260508164040 56 227 1.0 9.0 0.00 0.00 0.00 48 1008.7
20260508163552 56 321 0.0 7.0 0.00 0.00 0.00 49 1008.6
20260508163105 56 269 0.0 16.0 0.00 0.00 0.00 51 1008.7
20260508162558 56 246 0.0 16.0 0.00 0.00 0.00 48 1008.7
20260508162049 56 268 1.0 16.0 0.00 0.00 0.00 49 1008.7
20260508161602 57 288 0.0 11.0 0.00 0.00 0.00 51 1008.7
20260508161116 56 247 0.0 11.0 0.00 0.00 0.00 48 1008.6
20260508160547 56 238 0.0 8.0 0.00 0.00 0.00 47 1008.6
20260508160058 57 279 0.0 13.0 0.00 0.00 0.00 44 1008.7
20260508155550 58 229 0.0 13.0 0.00 0.00 0.00 43 1008.7
20260508155040 58 282 0.0 8.0 0.00 0.00 0.00 45 1008.8
20260508154553 57 321 0.0 8.0 0.00 0.00 0.00 44 1008.8
20260508154042 57 269 0.0 10.0 0.00 0.00 0.00 43 1008.8
20260508153551 58 303 1.0 10.0 0.00 0.00 0.00 42 1008.9
20260508153043 57 261 0.0 7.0 0.00 0.00 0.00 47 1008.8
20260508152555 58 198 1.0 10.0 0.00 0.00 0.00 44 1008.9
20260508152046 57 309 0.0 10.0 0.00 0.00 0.00 47 1008.8
20260508151600 57 256 0.0 8.0 0.00 0.00 0.00 48 1008.9
20260508151052 57 248 0.0 8.0 0.00 0.00 0.00 49 1008.9
20260508150545 56 281 1.0 8.0 0.00 0.00 0.00 48 1009.0
20260508150121 56 49 1.0 11.0 0.00 0.00 0.00 51 1009.0
20260508145553 56 279 2.0 11.0 0.00 0.00 0.00 50 1009.1
20260508145043 56 315 1.0 12.0 0.00 0.00 0.00 52 1009.1
20260508144557 56 277 1.0 12.0 0.00 0.00 0.00 53 1009.0
20260508144050 56 255 0.0 6.0 0.00 0.00 0.00 54 1008.9
20260508143541 55 271 0.0 3.0 0.00 0.00 0.00 55 1008.9
20260508143057 56 198 0.0 3.0 0.00 0.00 0.00 56 1008.9
20260508142549 55 198 0.0 3.0 0.00 0.00 0.00 57 1008.8
20260508142039 55 304 0.0 2.0 0.00 0.00 0.00 58 1008.8
20260508141555 54 243 0.0 8.0 0.00 0.00 0.00 57 1008.9
20260508141107 55 241 0.0 8.0 0.00 0.00 0.00 59 1008.9
20260508140558 54 131 0.0 2.0 0.00 0.00 0.00 59 1008.8
20260508140050 54 222 0.0 2.0 0.00 0.00 0.00 59 1009.0
20260508135540 54 275 0.0 2.0 0.00 0.00 0.00 60 1009.1
20260508135055 53 284 0.0 2.0 0.00 0.00 0.00 58 1009.0
20260508134547 53 268 0.0 0.0 0.00 0.00 0.00 60 1009.1
20260508134041 52 272 0.0 1.0 0.00 0.00 0.00 61 1009.0
20260508133554 52 293 0.0 1.0 0.00 0.00 0.00 61 1009.0
20260508133044 52 269 0.0 3.0 0.00 0.00 0.00 65 1009.0
20260508132558 51 334 0.0 3.0 0.00 0.00 0.00 66 1009.0
20260508132050 51 307 0.0 2.0 0.00 0.00 0.00 69 1009.1
20260508131540 51 209 0.0 2.0 0.00 0.00 0.00 69 1009.1
20260508131050 51 283 0.0 10.0 0.00 0.00 0.00 67 1009.2
20260508130541 51 275 1.0 10.0 0.00 0.00 0.00 68 1009.5
20260508130054 51 217 0.0 3.0 0.00 0.00 0.00 68 1009.6
20260508125545 51 273 0.0 4.0 0.00 0.00 0.00 68 1009.5
20260508125057 50 276 0.0 4.0 0.00 0.00 0.00 71 1009.6
20260508124549 50 217 0.0 2.0 0.00 0.00 0.00 69 1009.6
20260508124040 50 291 0.0 2.0 0.00 0.00 0.00 68 1009.5
20260508123554 50 289 0.0 3.0 0.00 0.00 0.00 69 1009.5
20260508123106 50 270 0.0 7.0 0.00 0.00 0.00 69 1009.5
20260508122558 50 247 0.0 6.0 0.00 0.00 0.00 71 1009.5
20260508122050 49 273 0.0 0.0 0.00 0.00 0.00 72 1009.6
20260508121541 49 236 0.0 1.0 0.00 0.00 0.00 73 1009.5
20260508121053 49 273 0.0 1.0 0.00 0.00 0.00 73 1009.4
20260508120546 48 273 0.0 0.0 0.00 0.00 0.00 74 1009.4
20260508120057 48 258 0.0 0.0 0.00 0.00 0.00 76 1009.4
20260508115609 48 244 0.0 0.0 0.00 0.00 0.00 75 1009.3
20260508115041 47 260 0.0 0.0 0.00 0.00 0.00 77 1009.3
20260508114551 47 218 0.0 0.0 0.00 0.00 0.00 77 1009.2
20260508114042 47 279 0.0 0.0 0.00 0.00 0.00 78 1009.3
20260508113553 46 265 0.0 1.0 0.00 0.00 0.00 79 1009.4
20260508113044 46 277 0.0 1.0 0.00 0.00 0.00 80 1009.4
20260508112557 46 271 0.0 1.0 0.00 0.00 0.00 81 1009.5
20260508112050 46 250 0.0 1.0 0.00 0.00 0.00 81 1009.4
20260508111540 45 265 0.0 1.0 0.00 0.00 0.00 82 1009.4
20260508111111 45 263 0.0 8.0 0.00 0.00 0.00 82 1009.4
20260508110053 45 274 0.0 2.0 0.00 0.00 0.00 83 1009.1
20260508105545 44 274 0.0 0.0 0.00 0.00 0.00 84 1009.0
20260508105057 44 275 0.0 0.0 0.00 0.00 0.00 84 1009.0
20260508104550 44 269 0.0 0.0 0.00 0.00 0.00 85 1009.0
20260508104042 43 292 0.0 0.0 0.00 0.00 0.00 85 1008.9
20260508103555 43 292 0.0 0.0 0.00 0.00 0.00 85 1008.9
20260508103046 43 292 0.0 0.0 0.00 0.00 0.00 85 1008.9
20260508102539 43 296 0.0 0.0 0.00 0.00 0.00 84 1008.8
20260508102052 44 297 0.0 0.0 0.00 0.00 0.00 84 1008.8
20260508101543 44 297 0.0 0.0 0.00 0.00 0.00 83 1008.8
20260508101057 44 297 0.0 0.0 0.00 0.00 0.00 82 1008.7
20260508100547 44 297 0.0 0.0 0.00 0.00 0.00 82 1008.7
20260508100100 45 297 0.0 0.0 0.00 0.00 0.00 82 1008.6
20260508095550 45 297 0.0 0.0 0.00 0.00 0.00 82 1008.6
20260508095041 45 307 0.0 0.0 0.00 0.00 0.00 82 1008.5
20260508094552 45 277 0.0 0.0 0.00 0.00 0.00 83 1008.5
20260508094045 45 273 0.0 0.0 0.00 0.00 0.00 82 1008.5
20260508093600 45 273 0.0 0.0 0.00 0.00 0.00 82 1008.4
20260508093052 45 275 0.0 0.0 0.00 0.00 0.00 82 1008.4
20260508092542 45 264 0.0 0.0 0.00 0.00 0.00 82 1008.2
20260508092117 45 263 0.0 0.0 0.00 0.00 0.00 82 1008.1
20260508091547 45 262 0.0 0.0 0.00 0.00 0.00 82 1008.1
20260508091040 45 262 0.0 0.0 0.00 0.00 0.00 82 1008.1
20260508090611 45 262 0.0 1.0 0.00 0.00 0.00 82 1008.1
20260508090104 45 262 0.0 1.0 0.00 0.03 0.00 81 1008.2
20260508085557 45 260 0.0 0.0 0.00 0.03 0.00 81 1008.2
20260508085111 45 260 0.0 1.0 0.00 0.03 0.00 81 1008.3
20260508084602 45 261 0.0 1.0 0.00 0.03 0.00 82 1008.5
20260508084052 45 273 0.0 1.0 0.00 0.03 0.00 83 1008.5
20260508083542 45 273 0.0 0.0 0.00 0.03 0.00 83 1008.4
20260508083055 45 272 0.0 0.0 0.00 0.03 0.00 84 1008.4
20260508082549 45 286 0.0 1.0 0.00 0.03 0.00 83 1008.3
20260508082040 45 282 0.0 1.0 0.00 0.03 0.00 83 1008.3
20260508081552 45 287 0.0 0.0 0.00 0.03 0.00 83 1008.3
20260508081044 45 288 0.0 0.0 0.00 0.03 0.00 83 1008.4
20260508080555 45 280 0.0 0.0 0.00 0.03 0.00 83 1008.4
20260508080045 45 272 0.0 1.0 0.00 0.08 0.00 82 1008.5
20260508075558 45 254 0.0 1.0 0.00 0.08 0.00 82 1008.5
20260508075049 45 287 0.0 0.0 0.00 0.08 0.00 81 1008.5
20260508074542 45 255 0.0 1.0 0.00 0.08 0.00 80 1008.4
20260508074055 45 282 0.0 1.0 0.00 0.08 0.00 80 1008.4
20260508073546 45 271 0.0 1.0 0.00 0.08 0.00 79 1008.3
20260508073100 45 278 0.0 6.0 0.00 0.08 0.00 79 1008.5
20260508072551 45 294 0.0 6.0 0.00 0.08 0.00 79 1008.4
20260508072041 46 220 0.0 0.0 0.00 0.08 0.00 78 1008.3
20260508071615 46 266 0.0 3.0 0.00 0.08 0.00 77 1008.5
20260508071102 46 277 0.0 3.0 0.00 0.08 0.00 76 1008.5
20260508070554 46 277 0.0 1.0 0.00 0.08 0.00 76 1008.5
20260508070045 46 278 0.0 1.0 0.00 0.13 0.00 74 1008.5
20260508065539 46 260 0.0 6.0 0.00 0.13 0.00 75 1008.6
20260508065051 46 257 1.0 10.0 0.00 0.13 0.00 70 1008.6
20260508064543 47 278 0.0 16.0 0.00 0.13 0.00 70 1008.6
20260508064055 48 308 1.0 16.0 0.00 0.13 0.00 69 1008.8
20260508063548 48 226 1.0 12.0 0.00 0.13 0.00 66 1008.6
20260508063059 48 262 2.0 12.0 0.00 0.13 0.00 65 1008.5
20260508062553 48 294 0.0 3.0 0.00 0.13 0.00 66 1008.4
20260508062044 48 290 0.0 7.0 0.00 0.13 0.00 66 1008.1
20260508061556 47 269 0.0 7.0 0.00 0.13 0.00 66 1008.0
20260508061107 47 273 0.0 0.0 0.00 0.13 0.00 70 1007.6
20260508060558 46 273 0.0 0.0 0.00 0.13 0.00 68 1007.5
20260508060049 46 273 0.0 0.0 0.00 0.13 0.00 70 1007.3
20260508055541 46 273 0.0 0.0 0.00 0.13 0.00 71 1007.3
20260508055115 46 271 0.0 0.0 0.00 0.13 0.00 72 1007.3
20260508054545 45 271 0.0 0.0 0.00 0.13 0.00 72 1007.3
20260508054059 45 271 0.0 0.0 0.00 0.13 0.00 74 1007.4
20260508053550 45 271 0.0 0.0 0.00 0.13 0.00 73 1007.2
20260508053103 45 271 0.0 0.0 0.00 0.13 0.00 73 1007.2
20260508052614 45 271 0.0 0.0 0.00 0.13 0.00 76 1007.0
20260508052044 44 271 0.0 0.0 0.00 0.13 0.00 77 1007.0
20260508051557 44 271 0.0 0.0 0.00 0.13 0.00 77 1007.0
20260508051112 44 271 0.0 0.0 0.00 0.13 0.00 77 1007.0
20260508050541 44 271 0.0 0.0 0.00 0.13 0.00 78 1007.0
20260508050056 44 271 0.0 0.0 0.00 0.13 0.00 78 1007.1
20260508045548 44 271 0.0 0.0 0.00 0.13 0.00 78 1007.1
20260508045039 44 271 0.0 0.0 0.00 0.13 0.00 75 1006.9
20260508044553 44 271 0.0 0.0 0.00 0.13 0.00 76 1006.7
20260508044107 44 271 0.0 0.0 0.00 0.13 0.00 76 1006.8
20260508043559 44 271 0.0 0.0 0.00 0.13 0.00 75 1006.9
20260508043052 44 271 0.0 0.0 0.00 0.13 0.00 75 1006.9
20260508042544 44 271 0.0 0.0 0.00 0.13 0.00 76 1007.0
20260508042059 44 271 0.0 0.0 0.00 0.13 0.00 78 1007.0
20260508041551 44 271 0.0 0.0 0.00 0.13 0.00 78 1007.1
20260508041043 44 271 0.0 0.0 0.00 0.13 0.00 77 1007.1
20260508040617 44 271 0.0 0.0 0.00 0.13 0.00 77 1007.1
20260508040107 44 271 0.0 0.0 0.00 0.13 0.13 77 1007.0
20260508035601 44 271 0.0 0.0 0.00 0.13 0.13 76 1007.0
20260508035054 44 271 0.0 0.0 0.00 0.13 0.13 77 1007.1
20260508034543 44 271 0.0 0.0 0.00 0.13 0.13 77 1007.1
20260508034054 44 271 0.0 0.0 0.00 0.13 0.13 77 1007.1
20260508033608 44 271 0.0 0.0 0.00 0.13 0.13 77 1007.1
20260508033100 44 271 0.0 0.0 0.00 0.13 0.13 77 1007.1
20260508032552 44 271 0.0 0.0 0.00 0.13 0.13 77 1007.1
20260508032023 45 271 0.0 0.0 0.00 0.13 0.13 75 1007.1
20260508031059 45 271 0.0 0.0 0.00 0.13 0.13 76 1007.2
20260508030551 45 271 0.0 0.0 0.00 0.13 0.13 75 1007.2
20260508030045 45 271 0.0 0.0 0.00 0.13 0.13 75 1007.3
20260508025556 45 271 0.0 0.0 0.00 0.13 0.13 75 1007.3
20260508025048 45 271 0.0 0.0 0.00 0.13 0.13 75 1007.3
20260508024541 45 271 0.0 0.0 0.00 0.13 0.13 75 1007.2